BREEZE-M DEB (TANK), 38344

Orbit data source: Space-Track

BREEZE-M DEB (TANK), 38344 is space debris in HEO originally from a launch on Thu, 17 May 2012 UTC launched from the Tyuratam Missile And Space Complex (TTMTR). Debris objects in space refer to the collection of defunct objects orbiting the Earth. Examples of debris include non-operational satellites, rocket bodies, and fragments generated from explosions, collisions, or faulty payload assembly.

Loading next visibility...
Identifier
38344, 2012-026C
Orbit
HEO
Country
Flag of CISCIS
Related business
Manufacturer
Khrunichev
Mission
Spacecraft
Bus & Motor
BRIZ TANK, Unknown motor
Mass
~1,000 kg wet, 1,000 kg dry
Launch date (UTC)
2012-05-17 (13 years ago)
Launch vehicle
Unknown
Launch site
Tyuratam Missile And Space Complex (TTMTR)
Object type
Payload
Rocket body
Debris
Shape & HBR
Torus, 1.3 m
Radar Cross Section
5.040 m², Large (>1 m²)

Expand to show TLE details & history
Last TLE update: 14 hours ago

TLE from 14 hours ago
0 BREEZE-M DEB (TANK)
1 38344U 12026C   25309.10181907  .00023373  00000-0  26918-2 0  9995
2 38344  49.2699  60.4221 6216540 161.6387 238.5970  3.74758996173142
Epoch: 2025-11-05T02:26Z
TLE epoch observation values (Epoch: 2025-11-05T02:26:37.167Z)
Latitude
0.00001°
Longitude
-20.82718°
Altitude
19,821.274 km
Speed
2.768 km/s
True Right ascension
04h 01m 37s
True Declination
0° 00' 00"
Sunlit
Object was in daylight at epoch
Visualization orbit readout
Latitude
Unknown
Longitude
Unknown
Altitude
Unknown
Speed
Unknown
Apparent Right ascension
Unknown
Apparent Declination
Unknown
Sunlit
N/A
Visualization observer readout
Local Sidereal Time
12:34:50
Azimuth
Unknown
Elevation
Unknown
Doppler factor
Unknown
Orbital elements
Apogee altitude
22,014.796 km
Perigee altitude
246.182 km
Semi-major axis
17,508.626 km
Eccentricity
0.62165
Inclination
49.2699°
RAAN
60.4221°
Arg. of periapsis
161.6387°
True anomaly
198.41761°
Mean anomaly
238.597°
Eccentric anomaly
217.10792°
Mean motion
0.93684 °/min
Orbital period
384.27 mins
BSTAR
0.0026918
Loading maneuver chart data...
Computing Atmospheric mass density...
Loading historical data...
Loading historical data...
Loading historical data...
Loading historical data...
Loading historical data...
Loading historical data...
Loading historical data...

Documentation

Showing up to 5 results
|